Tracking 17855 objects as of 27-September-2016
HD Live streaming from Space Station
objects crossing your sky now

COSMOS 2251 DEB

Track COSMOS 2251 DEB now!
10-day predictions


NORAD ID: 34131
Int'l Code: 1993-036LC
Perigee: 700.3 km
Apogee: 714.0 km
Inclination: 74.1 °
Period: 98.8 minutes
Semi major axis: 7078 km
RCS: 0.018 m2 (small)
Launch date: June 16, 1993
Source: Commonwealth of Independent States (former USSR) (CIS)
Launch site: PLESETSK MISSILE AND SPACE COMPLEX (PKMTR)

Note: This is SATELLITE DEBRIS
Your satellite tracking list
Your tracking list is empty





NASA's NSSDC Master Catalog

Two Line Element Set (TLE):
1 34131U 93036LC  16269.47964883 +.00002648 +00000-0 +58357-3 0  9997
2 34131 074.1209 278.8174 0009668 343.5668 168.7889 14.57883107401004
Source of the keplerian elements: AFSPC

N2YO: 421